カタログに戻る

STARLINK-4396

運用中通信VLEO
NORAD 53637·PAYLOAD·🇺🇸 United States

打ち上げ Aug 28, 2022 から Cape Canaveral Space Force Station

Loading…

次のパス (今後24時間)

TLE

最新Source: CelesTrak SupGP

元期: Sep 14, 2026, 20:41 UTC

1 53637C 22104BB  26257.86229167 -.00006980  00000+0 -19970-3 0  2576
2 53637  53.1580  88.3718 0001265  83.0035  72.0581 15.35401097    15

AllMySatでSTARLINK-4396をリアルタイム追跡

Download on the App Store